FW0135 Weather Reports


Display with metric or nautical units.
time (UTC)temp
F
wind
direction
speed
MPH
gust
MPH
rain 1hr
in
rain 24hr
in
rain mn
in
humidity
%
barometer
mb
20260906032706 60 86 0.0 0.0 0.00 0.08 0.08 92 999.2
20260906032206 60 86 0.0 0.0 0.00 0.08 0.08 92 999.2
20260906031205 60 86 0.0 0.0 0.00 0.08 0.08 92 999.2
20260906030704 60 86 0.0 0.0 0.01 0.08 0.08 92 999.1
20260906025704 60 86 0.0 0.0 0.01 0.08 0.08 92 999.1
20260906024700 61 86 0.0 0.0 0.01 0.08 0.08 92 999.1
20260906024201 60 86 0.0 0.0 0.01 0.08 0.08 91 999.2
20260906023702 60 86 0.0 0.0 0.01 0.08 0.08 91 999.2
20260906023157 61 86 0.0 0.0 0.01 0.08 0.08 91 999.2
20260906022656 61 86 0.0 0.0 0.01 0.08 0.08 91 999.3
20260906022158 61 86 0.0 0.0 0.02 0.08 0.08 91 999.3
20260906021156 61 86 0.0 0.0 0.03 0.08 0.08 91 999.2
20260906020656 61 86 0.0 0.0 0.03 0.07 0.07 91 999.2
20260906020158 61 86 0.0 0.0 0.04 0.07 0.07 91 999.2
20260906015657 61 86 0.0 0.0 0.04 0.07 0.07 91 999.2
20260906015158 61 86 0.0 0.0 0.05 0.07 0.07 91 999.2
20260906014653 61 86 0.0 0.0 0.05 0.07 0.07 91 999.2
20260906014154 61 86 0.0 0.0 0.05 0.07 0.07 91 999.2
20260906013654 61 86 0.0 0.0 0.05 0.07 0.07 91 999.2
20260906013153 61 86 0.0 0.0 0.05 0.07 0.07 91 999.2
20260906011653 61 86 0.0 0.0 0.03 0.05 0.05 91 999.2
20260906011152 61 86 0.0 0.0 0.03 0.05 0.05 90 999.2
20260906010653 61 86 0.0 0.0 0.02 0.04 0.04 90 999.3
20260906010147 62 86 0.0 0.0 0.02 0.03 0.03 90 999.2
20260906005641 62 86 0.0 0.0 0.02 0.03 0.03 90 999.2
20260906005135 62 86 0.0 0.0 0.01 0.02 0.02 90 999.3
20260906004629 62 86 0.0 0.0 0.01 0.02 0.02 90 999.2
20260906003617 62 86 0.0 0.0 0.01 0.02 0.02 90 999.0
20260906003110 62 86 0.0 0.0 0.02 0.02 0.02 89 999.0
20260906002604 62 86 0.0 0.0 0.02 0.02 0.02 89 999.0
20260906002059 62 86 0.0 0.0 0.02 0.02 0.02 89 999.0
20260906001553 63 86 0.0 0.0 0.02 0.02 0.02 89 998.9
20260906001047 63 86 0.0 0.0 0.02 0.02 0.02 89 998.8
20260906000541 63 86 0.0 0.0 0.02 0.02 0.02 88 998.8
20260906000034 63 86 0.0 0.0 0.01 0.01 0.01 88 998.7
20260905235528 64 86 0.0 0.0 0.01 0.01 0.01 88 998.7
20260905234517 64 86 0.0 0.0 0.01 0.01 0.01 87 998.5
20260905234010 65 86 0.0 0.0 0.01 0.01 0.01 86 998.3
20260905233504 65 86 0.0 0.0 0.00 0.00 0.00 85 998.3
20260905232959 65 86 0.0 0.0 0.00 0.00 0.00 84 998.2
20260905232453 65 86 0.0 0.0 0.00 0.00 0.00 84 998.2
20260905231946 65 86 0.0 0.0 0.00 0.00 0.00 84 998.2
20260905231440 65 86 0.0 0.0 0.00 0.00 0.00 83 998.1
20260905230935 65 86 0.0 0.0 0.00 0.00 0.00 83 998.1
20260905230429 66 86 0.0 0.0 0.00 0.00 0.00 83 998.1
20260905225922 66 86 0.0 0.0 0.00 0.00 0.00 82 998.0
20260905225416 66 86 0.0 0.0 0.00 0.00 0.00 82 998.0
20260905224405 67 86 0.0 0.0 0.00 0.00 0.00 82 997.9
20260905223858 67 86 0.0 0.0 0.00 0.00 0.00 83 997.9
20260905223352 67 86 0.0 0.0 0.00 0.00 0.00 83 997.7
20260905222848 67 86 0.0 0.0 0.00 0.00 0.00 83 997.7
20260905221835 68 86 0.0 0.0 0.00 0.00 0.00 81 997.6
20260905221328 68 86 0.0 0.0 0.00 0.00 0.00 81 997.6
20260905220823 68 86 0.0 0.0 0.00 0.00 0.00 81 997.5
20260905215810 69 86 0.0 0.0 0.00 0.00 0.00 78 997.5
20260905214759 70 86 0.0 0.0 0.00 0.00 0.00 78 997.3
20260905214252 70 86 0.0 0.0 0.00 0.00 0.00 78 997.2
20260905213746 71 293 0.0 0.0 0.00 0.00 0.00 80 997.1
20260905213241 71 293 0.0 0.0 0.00 0.00 0.00 78 997.0
20260905211722 71 292 0.0 0.0 0.00 0.00 0.00 77 996.8
20260905211217 72 291 0.0 0.0 0.00 0.00 0.00 77 996.7
20260905210711 72 291 0.0 0.0 0.00 0.00 0.00 76 996.8
20260905210205 72 291 0.0 0.0 0.00 0.00 0.00 76 996.7
20260905205659 72 291 0.0 0.0 0.00 0.00 0.00 76 996.6
20260905205152 72 326 0.0 0.0 0.00 0.00 0.00 76 996.6
20260905204646 72 326 0.0 0.0 0.00 0.00 0.00 75 996.6
20260905204140 72 326 0.0 0.0 0.00 0.00 0.00 75 996.5
20260905202623 73 326 0.0 0.0 0.00 0.00 0.00 74 996.4
20260905202116 73 326 0.0 0.0 0.00 0.00 0.00 75 996.5
20260905201610 73 326 0.0 0.0 0.00 0.00 0.00 74 996.3
20260905201111 73 326 0.0 0.0 0.00 0.00 0.00 74 996.4
20260905200608 73 326 0.0 0.0 0.00 0.00 0.00 73 996.3
20260905200105 73 326 0.0 0.0 0.00 0.00 0.00 71 996.2
20260905195606 73 321 0.0 0.0 0.00 0.00 0.00 74 996.2
20260905195107 73 320 0.0 0.0 0.00 0.00 0.00 75 996.1
20260905194604 72 320 0.0 0.0 0.00 0.00 0.00 74 996.2
20260905194101 72 278 0.0 0.0 0.00 0.00 0.00 73 996.2
20260905193603 72 278 0.0 0.0 0.00 0.00 0.00 76 996.2
20260905193102 72 271 0.0 0.0 0.00 0.00 0.00 76 996.2
20260905192559 72 270 0.0 0.0 0.00 0.00 0.00 77 996.2
20260905192101 72 277 0.0 0.0 0.00 0.00 0.00 80 996.1
20260905191601 72 277 0.0 0.0 0.00 0.00 0.00 81 996.1
20260905191100 72 277 0.0 0.0 0.00 0.00 0.00 78 996.1
20260905190601 72 277 0.0 0.0 0.00 0.00 0.00 78 996.2
20260905190058 72 277 0.0 0.0 0.00 0.00 0.00 76 996.1
20260905185555 72 277 0.0 0.0 0.00 0.00 0.00 78 996.2
20260905185057 72 277 0.0 0.0 0.00 0.00 0.00 77 996.2
20260905184552 72 277 0.0 0.0 0.00 0.00 0.00 78 996.1
20260905184052 72 277 0.0 0.0 0.00 0.00 0.00 77 996.1
20260905183552 72 276 0.0 0.0 0.00 0.00 0.00 75 996.1
20260905182552 72 276 0.0 0.0 0.00 0.00 0.00 79 996.0
20260905181553 72 248 0.0 0.0 0.00 0.00 0.00 77 996.0
20260905181051 72 345 0.0 0.0 0.00 0.00 0.00 77 996.0
20260905180553 72 345 0.0 0.0 0.00 0.00 0.00 76 996.1
20260905180051 72 345 0.0 0.0 0.00 0.00 0.00 78 996.1
20260905175552 72 345 0.0 0.0 0.00 0.00 0.00 78 996.1
20260905175051 71 345 0.0 0.0 0.00 0.00 0.00 78 996.0
20260905174551 71 345 0.0 0.0 0.00 0.00 0.00 80 996.0
20260905174051 71 345 0.0 0.0 0.00 0.00 0.00 83 996.1
20260905173551 71 344 0.0 0.0 0.00 0.00 0.00 83 996.0
20260905173054 70 345 0.0 0.0 0.00 0.00 0.00 83 996.0
20260905172552 70 344 0.0 0.0 0.00 0.00 0.00 83 996.0
20260905172050 70 344 0.0 0.0 0.00 0.00 0.00 82 995.9
20260905171544 70 344 0.0 0.0 0.00 0.00 0.00 79 996.0
20260905171039 70 344 0.0 0.0 0.00 0.00 0.00 83 995.9
20260905170533 70 344 0.0 0.0 0.00 0.00 0.00 82 995.9
20260905170027 69 344 0.0 0.0 0.00 0.00 0.00 82 996.0
20260905165521 69 344 0.0 0.0 0.00 0.00 0.00 83 996.0
20260905163457 69 336 0.0 0.0 0.00 0.00 0.00 83 996.1
20260905162950 69 336 0.0 0.0 0.00 0.00 0.00 84 996.1
20260905162445 69 333 0.0 0.0 0.00 0.00 0.00 84 996.0
20260905161939 70 333 0.0 0.0 0.00 0.00 0.00 84 996.1
20260905161433 70 333 0.0 0.0 0.00 0.00 0.00 83 996.1
20260905160927 70 333 0.0 0.0 0.00 0.00 0.00 81 996.1
20260905160421 70 333 0.0 0.0 0.00 0.00 0.00 80 996.1
20260905155915 70 333 0.0 0.0 0.00 0.00 0.00 79 996.1
20260905155409 70 335 0.0 0.0 0.00 0.00 0.00 80 996.1
20260905154902 70 333 0.0 0.0 0.00 0.00 0.00 80 996.1
20260905154357 70 333 0.0 0.0 0.00 0.00 0.00 81 996.1
20260905152839 68 73 0.0 0.0 0.00 0.00 0.00 81 996.2
20260905152332 68 123 0.0 0.0 0.00 0.00 0.00 84 996.2
20260905151827 68 123 0.0 0.0 0.00 0.00 0.00 86 996.2
20260905151320 68 123 0.0 0.0 0.00 0.00 0.00 84 996.2
20260905150309 68 123 0.0 0.0 0.00 0.00 0.00 85 996.2
20260905145803 68 123 0.0 0.0 0.00 0.00 0.00 85 996.1
20260905145257 68 123 0.0 0.0 0.00 0.00 0.00 85 996.1
20260905144245 68 123 0.0 0.0 0.00 0.00 0.00 86 996.2
20260905143739 68 123 0.0 0.0 0.00 0.00 0.00 87 996.2
20260905143233 68 123 0.0 0.0 0.00 0.00 0.00 86 996.2
20260905142221 68 123 0.0 0.0 0.00 0.00 0.00 86 996.2
20260905141715 67 123 0.0 0.0 0.00 0.00 0.00 87 996.1
20260905141209 67 123 0.0 0.0 0.00 0.00 0.00 88 996.2
20260905140703 67 123 0.0 0.0 0.00 0.00 0.00 88 996.1
20260905140157 67 123 0.0 0.0 0.00 0.00 0.00 88 996.1
20260905135651 67 123 0.0 0.0 0.00 0.00 0.00 87 996.1
20260905135145 66 123 0.0 0.0 0.00 0.00 0.00 88 996.1
20260905134639 66 123 0.0 0.0 0.00 0.00 0.00 88 996.1
20260905133627 65 123 0.0 0.0 0.00 0.00 0.00 89 996.0
20260905133120 65 123 0.0 0.0 0.00 0.00 0.00 89 995.9
20260905132614 65 123 0.0 0.0 0.00 0.00 0.00 89 995.9
20260905132109 64 123 0.0 0.0 0.00 0.00 0.00 89 995.9
20260905131602 64 123 0.0 0.0 0.00 0.00 0.00 89 995.8
20260905131057 64 123 0.0 0.0 0.00 0.00 0.00 90 995.8
20260905130045 63 123 0.0 0.0 0.00 0.00 0.00 90 995.8
20260905125538 63 120 0.0 0.0 0.00 0.00 0.00 91 995.8
20260905124527 62 121 0.0 0.0 0.00 0.00 0.00 92 995.8
20260905124021 62 120 0.0 0.0 0.00 0.00 0.00 92 995.7
20260905123514 61 120 0.0 0.0 0.00 0.00 0.00 92 995.7
20260905123009 61 120 0.0 0.0 0.00 0.00 0.00 92 995.7
20260905122002 61 139 0.0 0.0 0.00 0.00 0.00 92 995.6
20260905121001 60 139 0.0 0.0 0.00 0.00 0.00 92 995.6
20260905120459 60 139 0.0 0.0 0.00 0.00 0.00 92 995.5
20260905114957 60 139 0.0 0.0 0.00 0.00 0.00 92 995.5
20260905114458 60 139 0.0 0.0 0.00 0.00 0.00 92 995.5
20260905113957 60 139 0.0 0.0 0.00 0.00 0.00 92 995.5
20260905113456 60 139 0.0 0.0 0.00 0.00 0.00 92 995.5
20260905112957 59 139 0.0 0.0 0.00 0.00 0.00 92 995.4
20260905112457 59 139 0.0 0.0 0.00 0.00 0.00 92 995.4
20260905111956 59 139 0.0 0.0 0.00 0.00 0.00 92 995.3
20260905111457 59 139 0.0 0.0 0.00 0.00 0.00 92 995.3
20260905110958 59 139 0.0 0.0 0.00 0.00 0.00 92 995.3
20260905110453 59 139 0.0 0.0 0.00 0.00 0.00 92 995.3
20260905105953 58 139 0.0 0.0 0.00 0.00 0.00 92 995.3
20260905105454 58 139 0.0 0.0 0.00 0.00 0.00 92 995.2
20260905104954 58 139 0.0 0.0 0.00 0.00 0.00 92 995.2
20260905104454 58 139 0.0 0.0 0.00 0.00 0.00 92 995.2
20260905103952 58 139 0.0 0.0 0.00 0.00 0.00 92 995.2
20260905103453 58 139 0.0 0.0 0.00 0.00 0.00 92 995.2
20260905102953 58 139 0.0 0.0 0.00 0.00 0.00 92 995.3
20260905102454 58 139 0.0 0.0 0.00 0.00 0.00 92 995.2
20260905101954 58 139 0.0 0.0 0.00 0.00 0.00 92 995.2
20260905100454 58 139 0.0 0.0 0.00 0.00 0.00 91 995.1
20260905095952 58 139 0.0 0.0 0.00 0.00 0.00 91 995.0
20260905095453 58 139 0.0 0.0 0.00 0.00 0.00 91 995.0
20260905094952 59 139 0.0 0.0 0.00 0.00 0.00 91 994.9
20260905094453 59 139 0.0 0.0 0.00 0.00 0.00 91 994.8
20260905093951 59 139 0.0 0.0 0.00 0.00 0.00 91 994.9
20260905093444 59 139 0.0 0.0 0.00 0.00 0.00 91 994.8
20260905092939 59 139 0.0 0.0 0.00 0.00 0.00 91 994.9
20260905092433 59 139 0.0 0.0 0.00 0.00 0.00 91 994.8
20260905091926 59 139 0.0 0.0 0.00 0.00 0.00 91 994.8
20260905091420 59 139 0.0 0.0 0.00 0.00 0.00 91 994.8
20260905090915 59 139 0.0 0.0 0.00 0.00 0.00 91 994.8
20260905090409 59 139 0.0 0.0 0.00 0.00 0.00 91 994.7
20260905085903 59 139 0.0 0.0 0.00 0.00 0.00 91 994.7
20260905084850 59 139 0.0 0.0 0.00 0.00 0.00 91 994.7
20260905084344 59 139 0.0 0.0 0.00 0.00 0.00 91 994.6
20260905083838 59 139 0.0 0.0 0.00 0.00 0.00 91 994.6
20260905083332 59 139 0.0 0.0 0.00 0.00 0.00 91 994.6
20260905082827 59 139 0.0 0.0 0.00 0.00 0.00 91 994.6
20260905082321 59 139 0.0 0.0 0.00 0.00 0.00 91 994.6
20260905081814 59 139 0.0 0.0 0.00 0.00 0.00 91 994.6
20260905081308 59 139 0.0 0.0 0.00 0.00 0.00 91 994.6
20260905080803 59 139 0.0 0.0 0.00 0.00 0.00 91 994.6
20260905080256 59 139 0.0 0.0 0.00 0.00 0.00 91 994.5
20260905075751 59 139 0.0 0.0 0.00 0.00 0.00 91 994.5
20260905075244 59 139 0.0 0.0 0.00 0.00 0.00 91 994.5
20260905074738 59 139 0.0 0.0 0.00 0.00 0.00 91 994.6
20260905073727 59 139 0.0 0.0 0.00 0.00 0.00 91 994.8
20260905073221 59 139 0.0 0.0 0.00 0.00 0.00 91 994.8
20260905072209 59 139 0.0 0.0 0.00 0.00 0.00 91 994.9
20260905071702 59 139 0.0 0.0 0.00 0.00 0.00 91 994.8
20260905071157 59 139 0.0 0.0 0.00 0.00 0.00 91 994.8
20260905070651 59 139 0.0 0.0 0.00 0.00 0.00 91 994.9
20260905070145 59 139 0.0 0.0 0.00 0.00 0.00 91 995.0
20260905065639 59 139 0.0 0.0 0.00 0.00 0.00 90 995.1
20260905065133 59 139 0.0 0.0 0.00 0.00 0.00 90 995.1
20260905064627 59 139 0.0 0.0 0.00 0.00 0.00 90 995.2
20260905063615 59 139 0.0 0.0 0.00 0.00 0.00 90 995.3
20260905063108 59 139 0.0 0.0 0.00 0.00 0.00 90 995.3
20260905062602 59 139 0.0 0.0 0.00 0.00 0.00 90 995.2
20260905062057 59 139 0.0 0.0 0.00 0.00 0.00 90 995.2
20260905061551 60 139 0.0 0.0 0.00 0.00 0.00 90 995.2
20260905061044 60 139 0.0 0.0 0.00 0.00 0.00 89 995.2
20260905060538 60 139 0.0 0.0 0.00 0.00 0.00 90 995.3
20260905060033 60 139 0.0 0.0 0.00 0.00 0.00 90 995.3
20260905055527 60 139 0.0 0.0 0.00 0.00 0.00 89 995.3
20260905055021 60 139 0.0 0.0 0.00 0.00 0.00 89 995.4
20260905053503 60 139 0.0 0.0 0.00 0.00 0.00 89 995.3
20260905052451 61 139 0.0 0.0 0.00 0.00 0.00 89 995.5
20260905051945 61 139 0.0 0.0 0.00 0.00 0.00 89 995.5
20260905051439 61 139 0.0 0.0 0.00 0.00 0.00 89 995.5
20260905050932 61 139 0.0 0.0 0.00 0.00 0.00 89 995.5
20260905050426 61 139 0.0 0.0 0.00 0.00 0.00 89 995.5
20260905045921 61 139 0.0 0.0 0.00 0.00 0.00 89 995.5
20260905045415 61 139 0.0 0.0 0.00 0.00 0.00 89 995.5
20260905044908 61 139 0.0 0.0 0.00 0.00 0.00 89 995.4
20260905044403 61 139 0.0 0.0 0.00 0.00 0.00 89 995.3
20260905043857 61 139 0.0 0.0 0.00 0.00 0.00 89 995.4
20260905043351 61 139 0.0 0.0 0.00 0.00 0.00 88 995.4
20260905042844 62 139 0.0 0.0 0.00 0.00 0.00 88 995.4
20260905042338 62 139 0.0 0.0 0.00 0.00 0.00 89 995.3
20260905041833 62 139 0.0 0.0 0.00 0.00 0.00 88 995.2
20260905041327 62 139 0.0 0.0 0.00 0.00 0.00 89 995.2
20260905040820 62 139 0.0 0.0 0.00 0.00 0.00 89 995.2
20260905040315 62 139 0.0 0.0 0.00 0.00 0.00 88 995.3
20260905035809 62 139 0.0 0.0 0.00 0.00 0.00 88 995.2
20260905035306 62 139 0.0 0.0 0.00 0.00 0.00 88 995.3
20260905034757 62 139 0.0 0.0 0.00 0.00 0.00 88 995.3
20260905033747 63 139 0.0 0.0 0.00 0.00 0.00 87 995.3
20260905033240 63 139 0.0 0.0 0.00 0.00 0.00 87 995.1